TimeEST,TemperatureF,Dew PointF,Humidity,Sea Level PressureIn,VisibilityMPH,Wind Direction,Wind SpeedMPH,Gust SpeedMPH,PrecipitationIn,Events,Conditions,WindDirDegrees,DateUTC
12:56 AM,45.0,44.1,97,30.15,3.0,Calm,Calm,-,N/A,,Overcast,0,2012-12-03 05:56:00
1:56 AM,46.0,44.1,93,30.16,3.0,Calm,Calm,-,N/A,,Overcast,0,2012-12-03 06:56:00
2:56 AM,45.0,44.1,97,30.16,3.0,Calm,Calm,-,N/A,,Overcast,0,2012-12-03 07:56:00
3:56 AM,46.0,44.1,93,30.17,3.0,Calm,Calm,-,N/A,,Overcast,0,2012-12-03 08:56:00
4:56 AM,45.0,44.1,97,30.17,3.0,Calm,Calm,-,N/A,Fog,Patches of Fog,0,2012-12-03 09:56:00
5:56 AM,43.0,42.1,97,30.18,3.0,Calm,Calm,-,N/A,Fog,Patches of Fog,0,2012-12-03 10:56:00
6:00 AM,42.8,42.8,100,30.17,1.8,Calm,Calm,-,N/A,Fog,Patches of Fog,0,2012-12-03 11:00:00
6:04 AM,41.0,39.2,93,30.17,0.5,Calm,Calm,-,N/A,Fog,Patches of Fog,0,2012-12-03 11:04:00
6:11 AM,41.0,39.2,93,30.17,1.5,Calm,Calm,-,N/A,Fog,Patches of Fog,0,2012-12-03 11:11:00
6:56 AM,39.9,39.0,97,30.21,1.5,Calm,Calm,-,N/A,Fog,Patches of Fog,0,2012-12-03 11:56:00
7:07 AM,42.8,41.0,93,30.20,1.5,ESE,3.5,-,N/A,Fog,Patches of Fog,110,2012-12-03 12:07:00
7:56 AM,41.0,41.0,100,30.23,1.5,Calm,Calm,-,N/A,Fog,Patches of Fog,0,2012-12-03 12:56:00
8:56 AM,46.4,42.8,87,30.24,1.5,Calm,Calm,-,N/A,,Clear,0,2012-12-03 13:56:00
9:18 AM,46.4,42.8,87,30.24,2.0,Calm,Calm,-,N/A,,Clear,0,2012-12-03 14:18:00
9:53 AM,51.8,44.6,76,30.24,3.0,Calm,Calm,-,N/A,,Haze,0,2012-12-03 14:53:00
9:56 AM,51.1,46.0,83,30.25,3.0,Calm,Calm,-,N/A,,Haze,0,2012-12-03 14:56:00
10:56 AM,55.0,48.0,77,30.23,4.0,Calm,Calm,-,N/A,,Haze,0,2012-12-03 15:56:00
11:56 AM,59.0,48.9,69,30.20,5.0,Calm,Calm,-,N/A,,Haze,0,2012-12-03 16:56:00
12:56 PM,57.9,48.9,72,30.20,5.0,Calm,Calm,-,N/A,,Haze,0,2012-12-03 17:56:00
1:56 PM,62.1,51.1,67,30.18,7.0,Calm,Calm,-,N/A,,Mostly Cloudy,0,2012-12-03 18:56:00
2:56 PM,66.0,51.1,59,30.18,8.0,Calm,Calm,-,N/A,,Scattered Clouds,0,2012-12-03 19:56:00
3:56 PM,61.0,51.1,70,30.19,8.0,Calm,Calm,-,N/A,,Mostly Cloudy,0,2012-12-03 20:56:00
4:56 PM,55.9,48.9,77,30.19,8.0,Calm,Calm,-,N/A,,Mostly Cloudy,0,2012-12-03 21:56:00
5:56 PM,57.0,50.0,77,30.22,8.0,Calm,Calm,-,N/A,,Overcast,0,2012-12-03 22:56:00
6:56 PM,51.1,48.0,89,30.22,8.0,Calm,Calm,-,N/A,,Mostly Cloudy,0,2012-12-03 23:56:00
7:56 PM,55.0,50.0,83,30.22,8.0,ESE,5.8,-,N/A,,Overcast,120,2012-12-04 00:56:00
8:56 PM,57.0,51.1,81,30.22,8.0,East,4.6,-,N/A,,Overcast,80,2012-12-04 01:56:00
9:56 PM,52.0,48.9,89,30.22,8.0,SE,5.8,-,N/A,,Mostly Cloudy,130,2012-12-04 02:56:00
10:56 PM,55.9,50.0,80,30.21,8.0,ESE,3.5,-,N/A,,Mostly Cloudy,110,2012-12-04 03:56:00
11:56 PM,53.1,50.0,89,30.22,4.0,Calm,Calm,-,0.01,Rain,Light Rain,0,2012-12-04 04:56:00